Evans Head Observation History
Time Wind Speed Temp Pressure Rel. Hum Rain
24/10:30am NW 8-15 kts 16.0°c 1022.8 hPa 86% 0.0mm
24/10:00am NW 7-10 kts 16.1°c 1022.9 hPa 87% 0.0mm
24/09:30am NW 9-14 kts 15.7°c 1022.7 hPa 90% 0.0mm
24/09:00am NW 6-10 kts 15.1°c 1022.6 hPa 92% 0.0mm
24/08:30am NNW 6-10 kts 14.7°c 1022.4 hPa 95% 0.0mm
24/08:00am NNW 5-8 kts 14.6°c 1022.0 hPa 96% 0.0mm
24/07:30am NNW 5-8 kts 14.5°c 1021.8 hPa 96% 0.0mm
24/07:00am NW 8-12 kts 14.4°c 1022.3 hPa 96% 0.0mm
24/06:30am NNW 5-8 kts 13.8°c 1022.2 hPa 96% 0.0mm
24/06:00am NNW 5-9 kts 13.8°c 1022.0 hPa 96% 0.0mm
24/05:30am N 6-8 kts 13.8°c 1021.5 hPa 96% 0.0mm
24/05:00am NNW 5 kts 13.6°c 1021.6 hPa 96% 0.0mm
24/04:30am NNW 5-7 kts 13.9°c 1021.9 hPa 96% 0.0mm
24/04:00am NNW 5-6 kts 13.1°c 1021.6 hPa 96% 0.0mm
24/03:30am NNW 5-7 kts 13.2°c 1021.9 hPa 95% 0.0mm
24/03:00am NNW 5-6 kts 13.7°c 1022.1 hPa 96% 0.0mm
24/02:30am NNW 6-9 kts 13.8°c 1022.2 hPa 96% 0.0mm
24/02:00am NNW 5-7 kts 13.4°c 1022.9 hPa 95% 0.0mm
24/01:30am NNW 5-7 kts 13.7°c 1022.8 hPa 95% 0.0mm
24/01:00am NNW 8-12 kts 14.2°c 1023.5 hPa 95% 0.0mm
24/12:30am NNW 6-8 kts 13.8°c 1023.8 hPa 93% 0.0mm
24/12:00am NNW 6-8 kts 14.0°c 1023.9 hPa 92% 0.0mm
Time Wind Speed Temp Pressure Rel. Hum Rain
23/11:30pm NNW 5-6 kts 13.9°c 1024.5 hPa 89% 0.0mm
23/11:00pm NW 5-6 kts 14.5°c 1024.8 hPa 91% 0.0mm
23/10:30pm NNW 5-6 kts 14.8°c 1025.0 hPa 90% 0.0mm
23/10:00pm NW 7-11 kts 15.2°c 1024.9 hPa 89% 0.0mm
23/09:30pm N 7-10 kts 15.1°c 1025.8 hPa 93% 0.0mm
23/09:00pm NNW 5-7 kts 15.2°c 1025.5 hPa 93% 0.0mm
23/08:30pm NNW 4-6 kts 15.4°c 1025.6 hPa 92% 0.0mm
23/08:00pm NW 4-5 kts 15.5°c 1025.2 hPa 92% 0.0mm
23/07:30pm NNW 3-4 kts 15.6°c 1024.8 hPa 91% 0.0mm
23/07:00pm NNW 3-5 kts 15.4°c 1024.7 hPa 92% 0.0mm
23/06:30pm N 4-5 kts 15.4°c 1024.5 hPa 91% 0.0mm
23/06:00pm N 5-7 kts 15.9°c 1024.1 hPa 90% 0.0mm
23/05:30pm N 4-5 kts 16.1°c 1024.1 hPa 87% 0.0mm
23/05:00pm N 4-5 kts 16.6°c 1024.2 hPa 87% 0.0mm
23/04:30pm NNE 5-6 kts 17.5°c 1024.4 hPa 84% 0.0mm
23/04:00pm ENE 3-5 kts 18.0°c 1024.6 hPa 83% 0.0mm
23/03:30pm CALM 0 kts 19.0°c 1024.7 hPa 75% 0.0mm
23/03:00pm NNW 3-5 kts 19.8°c 1024.7 hPa 74% 0.0mm
23/02:30pm NNW 5-9 kts 20.1°c 1025.1 hPa 73% 0.0mm
23/02:00pm N 4-5 kts 18.8°c 1025.2 hPa 81% 0.0mm
23/01:30pm ENE 4-5 kts 18.5°c 1025.4 hPa 77% 0.0mm
23/01:00pm ESE 3-5 kts 18.8°c 1025.7 hPa 75% 0.0mm
23/12:30pm SE 6-7 kts 18.7°c 1026.4 hPa 75% 0.0mm
23/12:00pm SSE 7-9 kts 18.6°c 1027.2 hPa 76% 0.0mm
23/11:30am SSW 2-4 kts 19.4°c 1027.6 hPa 74% 0.0mm
23/11:00am SSW 2-4 kts 18.5°c 1028.1 hPa 76% 0.0mm
23/10:30am WSW 4-5 kts 17.6°c 1028.4 hPa 83% 0.0mm
23/10:00am WSW 6-7 kts 16.2°c 1028.7 hPa 86% 0.0mm
23/09:30am WSW 7-9 kts 15.4°c 1029.0 hPa 90% 0.0mm
23/09:00am W 6-9 kts 14.7°c 1029.1 hPa 92% 4.4mm
23/08:30am W 4-5 kts 13.6°c 1028.6 hPa 96% 4.2mm
23/08:00am W 5-6 kts 12.9°c 1028.4 hPa 96% 4.2mm
23/07:30am WSW 7-8 kts 12.7°c 1028.2 hPa 96% 4.2mm
23/07:00am WSW 7-10 kts 12.5°c 1028.0 hPa 96% 4.2mm
23/06:30am SW 6-9 kts 12.5°c 1028.0 hPa 95% 4.2mm
23/06:00am SW 6-8 kts 12.9°c 1027.7 hPa 95% 4.2mm
23/05:30am WSW 7-9 kts 13.3°c 1027.8 hPa 95% 4.2mm
23/05:00am WSW 8-14 kts 13.3°c 1027.5 hPa 96% 4.2mm
23/04:30am W 7-11 kts 12.8°c 1027.7 hPa 96% 4.2mm
23/04:00am WSW 8-12 kts 12.7°c 1027.1 hPa 96% 4.2mm
23/03:30am SW 8-11 kts 13.0°c 1027.2 hPa 95% 4.2mm
23/03:00am SW 8-11 kts 13.1°c 1027.6 hPa 95% 3.6mm
23/02:30am WSW 9-12 kts 12.8°c 1027.7 hPa 95% 3.6mm
23/02:00am SW 7-9 kts 12.9°c 1027.4 hPa 95% 3.6mm
23/01:30am WSW 8-10 kts 13.1°c 1027.7 hPa 95% 3.6mm
23/01:00am WSW 8-11 kts 13.2°c 1028.4 hPa 96% 3.6mm
23/12:30am W 5-8 kts 13.3°c 1028.6 hPa 96% 3.6mm
23/12:00am WSW 7-9 kts 13.4°c 1028.8 hPa 95% 3.6mm
Time Wind Speed Temp Pressure Rel. Hum Rain
22/11:30pm SW 8-10 kts 14.0°c 1029.1 hPa 95% 3.6mm
22/11:00pm SSW 9-12 kts 13.9°c 1029.4 hPa 92% 3.4mm
22/10:30pm WSW 8-11 kts 14.0°c 1029.6 hPa 92% 3.4mm
22/10:00pm W 6-8 kts 13.9°c 1029.5 hPa 93% 3.4mm
22/09:30pm WSW 7-9 kts 14.7°c 1029.3 hPa 89% 3.4mm
22/09:00pm SSE 6-8 kts 15.2°c 1029.1 hPa 88% 3.4mm
22/08:30pm SE 11-15 kts 15.3°c 1029.0 hPa 88% 3.4mm
22/08:00pm SE 14-19 kts 15.2°c 1029.0 hPa 92% 3.4mm
22/07:30pm SW 8-12 kts 14.6°c 1029.0 hPa 89% 0.6mm
22/07:00pm SW 8-11 kts 14.3°c 1029.1 hPa 92% 0.6mm
22/06:30pm SW 7-10 kts 14.4°c 1028.7 hPa 93% 0.6mm
22/06:00pm SW 7-10 kts 14.7°c 1028.7 hPa 91% 0.6mm
22/05:30pm S 12-16 kts 14.8°c 1028.4 hPa 90% 0.6mm
22/05:00pm SSE 12-18 kts 15.0°c 1028.3 hPa 91% 0.6mm
22/04:30pm SSE 14-20 kts 15.0°c 1028.0 hPa 90% 0.6mm
22/04:00pm S 10-15 kts 16.8°c 1027.5 hPa 76% 0.0mm
22/03:30pm SSE 13-18 kts 16.7°c 1027.2 hPa 78% 0.0mm
22/03:00pm S 12-16 kts 16.6°c 1026.9 hPa 78% 0.0mm
22/02:30pm S 12-17 kts 16.7°c 1026.9 hPa 77% 0.0mm
22/02:00pm S 14-21 kts 17.9°c 1026.7 hPa 70% 0.0mm
22/01:30pm SSE 15-22 kts 18.2°c 1027.0 hPa 70% 0.0mm
22/01:00pm SSE 16-21 kts 18.4°c 1027.0 hPa 69% 0.0mm
22/12:30pm SSE 13-19 kts 18.3°c 1027.6 hPa 67% 0.0mm
22/12:00pm S 13-18 kts 18.4°c 1028.3 hPa 69% 0.0mm
22/11:30am S 11-16 kts 18.1°c 1029.0 hPa 68% 0.0mm
22/11:00am S 12-18 kts 17.8°c 1029.5 hPa 67% 0.0mm
22/10:30am SSW 10-16 kts 17.6°c 1029.6 hPa 71% 0.0mm
22/10:00am SSW 11-17 kts 17.0°c 1029.5 hPa 73% 0.0mm
22/09:30am SSW 10-14 kts 16.5°c 1029.1 hPa 75% 0.0mm
22/09:00am SW 11-18 kts 15.4°c 1028.8 hPa 77% 3.4mm
22/08:30am SSW 11-18 kts 14.3°c 1028.3 hPa 81% 3.4mm
22/08:00am SSW 9-14 kts 13.2°c 1027.8 hPa 84% 3.4mm
22/07:30am SW 8-12 kts 12.1°c 1027.3 hPa 87% 3.4mm
22/07:00am SSW 9-12 kts 11.7°c 1027.1 hPa 87% 3.4mm
22/06:30am SW 11-17 kts 12.0°c 1027.0 hPa 85% 3.4mm
22/06:00am SW 11-16 kts 11.9°c 1026.8 hPa 86% 3.4mm
22/05:30am SW 13-19 kts 12.1°c 1026.6 hPa 87% 3.4mm
22/05:00am SW 11-14 kts 12.0°c 1026.1 hPa 88% 3.4mm
22/04:30am SW 11-17 kts 12.4°c 1025.9 hPa 87% 3.4mm
22/04:00am SSW 12-17 kts 12.7°c 1025.7 hPa 87% 3.4mm
22/03:30am SW 12-19 kts 12.7°c 1025.6 hPa 87% 3.4mm
22/03:00am SW 11-17 kts 12.4°c 1025.6 hPa 89% 3.4mm
22/02:30am SW 10-14 kts 12.2°c 1025.6 hPa 91% 3.4mm
22/02:00am SW 10-16 kts 12.2°c 1025.4 hPa 92% 3.4mm
22/01:30am SW 11-17 kts 12.4°c 1025.4 hPa 92% 3.4mm
22/01:00am SW 11-15 kts 12.4°c 1025.4 hPa 92% 3.4mm
22/12:30am SSW 11-15 kts 12.5°c 1025.4 hPa 93% 3.4mm
22/12:00am SW 9-14 kts 12.7°c 1025.4 hPa 93% 3.4mm